Vernon, TX

8:10 PM CDT on March 24, 2017 (GMT -0500)
Vernon

Weather History for KF05 - June, 2013

Change the Weather History Date:

Wednesday, June 5, 2013

  Actual Average (KLTS) Record (KLTS)
Temperature  
Mean Temperature 84 °F -  
Max Temperature 91 °F 87 °F 104 °F (2006)
Min Temperature 78 °F 64 °F -39 °F (2007)
Cooling Degree Days 20    
Growing Degree Days 34 (Base 50)    
Moisture  
Dew Point 63 °F    
Average Humidity 45    
Maximum Humidity 57    
Minimum Humidity 38    
Precipitation  
Precipitation 0.00 in - - ()
Sea Level Pressure  
Sea Level Pressure 29.87 in    
Wind  
Wind Speed 14 mph (East)    
Max Wind Speed 21 mph    
Max Gust Speed 29 mph    
Visibility 10 miles    
Events      
Averages and records for this station are not official NWS values.
T = Trace of Precipitation, MM = Missing Value Source: NWS Daily Summary

Daily Weather History Graph

Daily Weather History Graph

Search for Another Location

Airport or City:

Trip Planner

Search our weather history database for the weather conditions in past years. The results will help you decide how hot, cold, wet, or windy it might be!

Date:

Astronomy

Jun. 05, 2013 Rise Set
Actual Time 6:25 AM CDT 8:46 PM CDT
Civil Twilight 5:56 AM CDT 9:15 PM CDT
Nautical Twilight 5:20 AM CDT 9:51 PM CDT
Astronomical Twilight 4:41 AM CDT 10:29 PM CDT
Moon 4:24 AM CDT (6/5) 6:19 PM CDT (6/5)
Length of Visible Light 15h 19m
Length of Day
14h 21m
Waning Crescent, 8% of the Moon is Illuminated
Jun 5
Waning Crescent
Jun 8
New
Jun 16
First Quarter
Jun 23
Full
Jun 29
Last Quarter

Hourly Weather History & Observations

Time (CDT) Temp. Heat Index Dew Point Humidity Pressure Visibility Wind Dir Wind Speed Gust Speed Precip Events Conditions
12:56 PM 86.0 °F 86.6 °F 62.6 °F 45% 29.90 in 10.0 mi East 16.1 mph 24.2 mph N/A   Clear
1:16 PM 86.0 °F 86.6 °F 62.6 °F 45% 29.88 in 10.0 mi SE 17.3 mph 21.9 mph N/A   Clear
1:36 PM 87.8 °F 88.5 °F 62.6 °F 43% 29.87 in 10.0 mi SE 19.6 mph 26.5 mph N/A   Clear
1:58 PM 87.8 °F 88.5 °F 62.6 °F 43% 29.87 in 10.0 mi SE 16.1 mph 28.8 mph N/A   Clear
2:16 PM 86.0 °F 86.6 °F 62.6 °F 45% 29.87 in 10.0 mi SE 13.8 mph - N/A   Clear
2:36 PM 89.6 °F 90.1 °F 62.6 °F 40% 29.88 in 10.0 mi SE 11.5 mph - N/A   Clear
2:56 PM 87.8 °F 88.5 °F 62.6 °F 43% 29.86 in 10.0 mi SE 9.2 mph 18.4 mph N/A   Clear
3:16 PM 89.6 °F 90.1 °F 62.6 °F 40% 29.86 in 10.0 mi SE 9.2 mph - N/A   Clear
3:36 PM 89.6 °F 90.1 °F 62.6 °F 40% 29.87 in 10.0 mi ENE 8.1 mph - N/A   Scattered Clouds
3:56 PM 89.6 °F 90.1 °F 62.6 °F 40% 29.87 in 10.0 mi ESE 8.1 mph - N/A   Mostly Cloudy
4:16 PM 89.6 °F 90.1 °F 62.6 °F 40% 29.86 in 10.0 mi East 10.4 mph - N/A   Scattered Clouds
4:36 PM 89.6 °F 90.1 °F 62.6 °F 40% 29.85 in 10.0 mi East 6.9 mph - N/A   Scattered Clouds
4:56 PM 89.6 °F 90.1 °F 62.6 °F 40% 29.84 in 10.0 mi ESE 11.5 mph - N/A   Clear
5:16 PM 91.4 °F 92.1 °F 62.6 °F 38% 29.84 in 10.0 mi East 10.4 mph - N/A   Scattered Clouds
5:36 PM 89.6 °F 90.1 °F 62.6 °F 40% 29.84 in 10.0 mi East 9.2 mph - N/A   Scattered Clouds
5:56 PM 91.4 °F 92.1 °F 62.6 °F 38% 29.84 in 10.0 mi East 13.8 mph 17.3 mph N/A   Scattered Clouds
6:16 PM 89.6 °F 90.1 °F 62.6 °F 40% 29.83 in 10.0 mi East 10.4 mph - N/A   Scattered Clouds
6:36 PM 89.6 °F 90.1 °F 62.6 °F 40% 29.83 in 10.0 mi East 9.2 mph - N/A   Clear
6:58 PM 89.6 °F 90.1 °F 62.6 °F 40% 29.83 in 10.0 mi ENE 13.8 mph - N/A   Clear
7:16 PM 87.8 °F 88.5 °F 62.6 °F 43% 29.84 in 10.0 mi ENE 13.8 mph - N/A   Clear
7:36 PM 87.8 °F 88.5 °F 62.6 °F 43% 29.84 in 10.0 mi NE 15.0 mph 20.7 mph N/A   Clear
7:56 PM 86.0 °F 86.6 °F 62.6 °F 45% 29.85 in 10.0 mi ENE 18.4 mph 21.9 mph N/A   Scattered Clouds
8:16 PM 84.2 °F 85.0 °F 62.6 °F 48% 29.86 in 10.0 mi ENE 16.1 mph 23.0 mph N/A   Scattered Clouds
8:36 PM 82.4 °F 83.4 °F 62.6 °F 51% 29.87 in 5.0 mi ENE 19.6 mph - N/A   Unknown
8:56 PM 82.4 °F 83.4 °F 62.6 °F 51% 29.87 in 10.0 mi ENE 18.4 mph - N/A   Mostly Cloudy
9:17 PM 82.4 °F 83.4 °F 62.6 °F 51% 29.88 in 10.0 mi ENE 16.1 mph - N/A   Mostly Cloudy
9:36 PM 82.4 °F 83.4 °F 62.6 °F 51% 29.88 in 10.0 mi ENE 18.4 mph - N/A   Mostly Cloudy
9:56 PM 82.4 °F 83.4 °F 62.6 °F 51% 29.88 in 10.0 mi ENE 16.1 mph - N/A   Mostly Cloudy
10:16 PM 82.4 °F 83.4 °F 62.6 °F 51% 29.89 in 10.0 mi ENE 18.4 mph - N/A   Mostly Cloudy
10:36 PM 80.6 °F 81.8 °F 62.6 °F 54% 29.90 in 10.0 mi NE 20.7 mph - N/A   Overcast
10:56 PM 80.6 °F 81.8 °F 62.6 °F 54% 29.92 in 10.0 mi NE 12.7 mph 17.3 mph N/A   Overcast
11:16 PM 80.6 °F 81.8 °F 62.6 °F 54% 29.92 in 10.0 mi NE 19.6 mph 23.0 mph N/A   Overcast
11:36 PM 78.8 °F - 62.6 °F 57% 29.91 in 10.0 mi NE 17.3 mph 26.5 mph N/A   Mostly Cloudy
11:56 PM 78.8 °F - 62.6 °F 57% 29.92 in 10.0 mi NE 16.1 mph 24.2 mph N/A   Overcast